N5448P 07FA-KSRQ

Flight info

Callsign N5448P
Flight time 1h 20m
Altitude 3000
Route VFR
Aircraft PA24/L-SDGRY/C

Departure

Time 2026-04-20 23:24
Airport Ocean Reef Club Airport (07FA)

Arrival

Time 2026-04-21 00:45
Airport Sarasota Bradenton International Airport (KSRQ)
Time Latitude Longitude Altitude Speed Heading
2026-04-20 23:20 25.32176 -80.27749 8 ft 0 kts 307°
2026-04-20 23:21 25.32171 -80.27780 8 ft 7 kts 243°
2026-04-20 23:22 25.32126 -80.27840 8 ft 13 kts 219°
2026-04-20 23:22 25.32048 -80.27906 9 ft 15 kts 220°
2026-04-20 23:22 25.31981 -80.27962 11 ft 10 kts 199°
2026-04-20 23:22 25.31952 -80.27980 14 ft 0 kts 304°
2026-04-20 23:23 25.31961 -80.27983 14 ft 3 kts
2026-04-20 23:23 25.31973 -80.27973 12 ft 3 kts 44°
2026-04-20 23:23 25.32141 -80.27837 16 ft 59 kts 44°
2026-04-20 23:23 25.32443 -80.27491 241 ft 64 kts 43°
2026-04-20 23:24 25.32730 -80.27159 498 ft 56 kts 19°
2026-04-20 23:24 25.33149 -80.27188 720 ft 68 kts 324°
2026-04-20 23:24 25.33417 -80.27648 1015 ft 74 kts 295°
2026-04-20 23:24 25.33614 -80.28170 1331 ft 73 kts 305°
2026-04-20 23:25 25.33868 -80.28662 1625 ft 75 kts 302°
2026-04-20 23:25 25.34100 -80.29188 1934 ft 77 kts 300°
2026-04-20 23:25 25.34349 -80.29708 2256 ft 76 kts 312°
2026-04-20 23:25 25.34644 -80.30190 2557 ft 75 kts 308°
2026-04-20 23:26 25.34893 -80.30700 2831 ft 76 kts 301°
2026-04-20 23:26 25.35160 -80.31187 3142 ft 73 kts 309°
2026-04-20 23:26 25.35445 -80.31668 3427 ft 75 kts 307°
2026-04-20 23:26 25.35735 -80.32148 3702 ft 76 kts 313°
2026-04-20 23:27 25.36075 -80.32588 3993 ft 73 kts 314°
2026-04-20 23:27 25.36410 -80.33032 4246 ft 76 kts 317°
2026-04-20 23:27 25.36782 -80.33427 4489 ft 75 kts 322°
2026-04-20 23:27 25.37200 -80.33875 4547 ft 98 kts 321°
2026-04-20 23:28 25.37808 -80.34415 4477 ft 124 kts 329°
2026-04-20 23:28 25.38579 -80.34941 4504 ft 135 kts 334°
2026-04-20 23:28 25.39428 -80.35461 4532 ft 143 kts 334°
2026-04-20 23:28 25.40290 -80.36030 4527 ft 146 kts 330°
2026-04-20 23:29 25.41105 -80.36689 4512 ft 148 kts 323°
2026-04-20 23:29 25.41876 -80.37464 4517 ft 151 kts 318°
2026-04-20 23:29 25.42596 -80.38346 4472 ft 158 kts 313°
2026-04-20 23:29 25.43284 -80.39296 4489 ft 158 kts 310°
2026-04-20 23:30 25.43928 -80.40278 4503 ft 158 kts 310°
2026-04-20 23:30 25.44590 -80.41249 4516 ft 158 kts 312°
2026-04-20 23:30 25.45303 -80.42177 4518 ft 159 kts 316°
2026-04-20 23:30 25.46021 -80.43107 4517 ft 159 kts 311°
2026-04-20 23:31 25.46653 -80.44113 4514 ft 160 kts 306°
2026-04-20 23:31 25.47209 -80.45181 4512 ft 160 kts 300°
2026-04-20 23:31 25.47663 -80.46292 4510 ft 161 kts 294°
2026-04-20 23:31 25.48034 -80.47464 4510 ft 162 kts 289°
2026-04-20 23:32 25.48342 -80.48667 4514 ft 163 kts 289°
2026-04-20 23:32 25.48643 -80.49881 4512 ft 164 kts 290°
2026-04-20 23:32 25.48979 -80.51084 4515 ft 163 kts 292°
2026-04-20 23:32 25.49377 -80.52246 4512 ft 161 kts 297°
2026-04-20 23:33 25.49880 -80.53348 4514 ft 160 kts 303°
2026-04-20 23:33 25.50465 -80.54400 4513 ft 161 kts 306°
2026-04-20 23:33 25.51063 -80.55443 4513 ft 160 kts 307°
2026-04-20 23:33 25.51662 -80.56479 4514 ft 160 kts 307°
2026-04-20 23:34 25.52056 -80.57167 4514 ft 159 kts 305°
2026-04-20 23:34 25.52601 -80.58235 4528 ft 160 kts 301°
2026-04-20 23:34 25.53122 -80.59325 4527 ft 160 kts 301°
2026-04-20 23:34 25.53616 -80.60434 4526 ft 161 kts 299°
2026-04-20 23:35 25.54074 -80.61568 4524 ft 162 kts 296°
2026-04-20 23:35 25.54926 -80.63885 4515 ft 163 kts 295°
2026-04-20 23:35 25.55352 -80.65030 4514 ft 163 kts 296°
2026-04-20 23:36 25.55824 -80.66165 4521 ft 162 kts 302°
2026-04-20 23:36 25.56454 -80.67199 4515 ft 161 kts 313°
2026-04-20 23:36 25.57249 -80.68066 4516 ft 160 kts 324°
2026-04-20 23:36 25.58172 -80.68746 4518 ft 159 kts 334°
2026-04-20 23:37 25.59152 -80.69297 4513 ft 157 kts 337°
2026-04-20 23:37 25.60130 -80.69830 4514 ft 156 kts 337°
2026-04-20 23:37 25.61125 -80.70324 4517 ft 156 kts 338°
2026-04-20 23:37 25.62045 -80.70956 4517 ft 157 kts 325°
2026-04-20 23:38 25.62833 -80.71797 4516 ft 158 kts 315°
2026-04-20 23:38 25.63505 -80.72742 4516 ft 158 kts 309°
2026-04-20 23:38 25.64131 -80.73752 4515 ft 159 kts 308°
2026-04-20 23:38 25.64778 -80.74751 4517 ft 159 kts 310°
2026-04-20 23:39 25.65484 -80.75699 4519 ft 159 kts 315°
2026-04-20 23:39 25.66264 -80.76575 4523 ft 159 kts 321°
2026-04-20 23:39 25.67111 -80.77365 4523 ft 159 kts 326°
2026-04-20 23:39 25.68004 -80.78089 4520 ft 159 kts 328°
2026-04-20 23:40 25.68914 -80.78783 4518 ft 159 kts 329°
2026-04-20 23:40 25.69811 -80.79491 4520 ft 158 kts 327°
2026-04-20 23:40 25.70672 -80.80243 4519 ft 158 kts 324°
2026-04-20 23:40 25.71506 -80.81047 4519 ft 159 kts 321°
2026-04-20 23:41 25.72309 -80.81895 4519 ft 159 kts 319°
2026-04-20 23:41 25.73076 -80.82763 4524 ft 159 kts 317°
2026-04-20 23:41 25.73840 -80.83656 4523 ft 159 kts 317°
2026-04-20 23:41 25.74603 -80.84544 4523 ft 159 kts 318°
2026-04-20 23:42 25.75381 -80.85418 4522 ft 159 kts 319°
2026-04-20 23:42 25.76178 -80.86270 4524 ft 159 kts 321°
2026-04-20 23:42 25.76999 -80.87090 4523 ft 159 kts 323°
2026-04-20 23:42 25.77825 -80.87888 4516 ft 160 kts 323°
2026-04-20 23:43 25.78682 -80.88698 4512 ft 160 kts 324°
2026-04-20 23:43 25.79524 -80.89498 4513 ft 159 kts 323°
2026-04-20 23:43 25.80333 -80.90307 4512 ft 158 kts 323°
2026-04-20 23:43 25.81158 -80.91110 4516 ft 158 kts 323°
2026-04-20 23:44 25.81992 -80.91902 4513 ft 158 kts 323°
2026-04-20 23:44 25.82816 -80.92721 4513 ft 159 kts 322°
2026-04-20 23:44 25.83627 -80.93567 4513 ft 160 kts 321°
2026-04-20 23:44 25.84433 -80.94418 4513 ft 160 kts 320°
2026-04-20 23:45 25.85232 -80.95269 4516 ft 159 kts 320°
2026-04-20 23:45 25.86031 -80.96126 4521 ft 159 kts 320°
2026-04-20 23:45 25.86833 -80.96986 4521 ft 161 kts 320°
2026-04-20 23:45 25.87639 -80.97842 4521 ft 160 kts 321°
2026-04-20 23:46 25.88450 -80.98670 4521 ft 160 kts 322°
2026-04-20 23:46 25.89279 -80.99487 4521 ft 159 kts 323°
2026-04-20 23:46 25.90115 -81.00285 4521 ft 159 kts 323°
2026-04-20 23:46 25.90943 -81.01091 4521 ft 158 kts 323°
2026-04-20 23:47 25.91751 -81.01922 4521 ft 158 kts 321°
2026-04-20 23:47 25.92549 -81.02769 4522 ft 158 kts 318°
2026-04-20 23:47 25.93320 -81.03645 4522 ft 158 kts 320°
2026-04-20 23:47 25.94087 -81.04519 4521 ft 158 kts 317°
2026-04-20 23:48 25.94862 -81.05393 4524 ft 159 kts 320°
2026-04-20 23:48 25.95703 -81.06195 4520 ft 158 kts 325°
2026-04-20 23:48 25.96565 -81.06920 4520 ft 157 kts 328°
2026-04-20 23:48 25.97447 -81.07629 4520 ft 156 kts 328°
2026-04-20 23:49 25.98307 -81.08358 4521 ft 155 kts 326°
2026-04-20 23:49 25.99137 -81.09152 4523 ft 159 kts 322°
2026-04-20 23:49 25.99927 -81.10009 4523 ft 158 kts 320°
2026-04-20 23:49 26.00683 -81.10908 4524 ft 159 kts 317°
2026-04-20 23:50 26.01425 -81.11827 4529 ft 160 kts 316°
2026-04-20 23:50 26.02174 -81.12743 4528 ft 161 kts 320°
2026-04-20 23:50 26.02963 -81.13618 4527 ft 160 kts 323°
2026-04-20 23:50 26.03784 -81.14451 4526 ft 159 kts 324°
2026-04-20 23:51 26.04620 -81.15260 4524 ft 158 kts 326°
2026-04-20 23:51 26.05464 -81.16035 4524 ft 158 kts 325°
2026-04-20 23:51 26.06300 -81.16841 4524 ft 158 kts 326°
2026-04-20 23:51 26.07152 -81.17614 4523 ft 158 kts 327°
2026-04-20 23:52 26.07984 -81.18383 4525 ft 158 kts 326°
2026-04-20 23:52 26.08807 -81.19195 4526 ft 158 kts 324°
2026-04-20 23:52 26.09609 -81.20032 4526 ft 158 kts 322°
2026-04-20 23:52 26.10390 -81.20898 4527 ft 159 kts 322°
2026-04-20 23:53 26.11181 -81.21765 4531 ft 159 kts 322°
2026-04-20 23:53 26.11971 -81.22632 4530 ft 160 kts 322°
2026-04-20 23:53 26.12774 -81.23487 4530 ft 160 kts 322°
2026-04-20 23:53 26.13589 -81.24331 4530 ft 160 kts 323°
2026-04-20 23:54 26.14406 -81.25174 4527 ft 160 kts 324°
2026-04-20 23:54 26.15221 -81.26009 4527 ft 159 kts 324°
2026-04-20 23:54 26.16032 -81.26850 4528 ft 159 kts 324°
2026-04-20 23:54 26.16858 -81.27675 4527 ft 159 kts 324°
2026-04-20 23:55 26.17691 -81.28492 4527 ft 159 kts 326°
2026-04-20 23:55 26.18508 -81.29322 4529 ft 160 kts 322°
2026-04-20 23:55 26.19335 -81.30162 4529 ft 160 kts 325°
2026-04-20 23:55 26.20168 -81.30981 4529 ft 159 kts 324°
2026-04-20 23:56 26.20982 -81.31806 4529 ft 157 kts 322°
2026-04-20 23:56 26.21769 -81.32653 4530 ft 157 kts 324°
2026-04-20 23:56 26.22560 -81.33464 4530 ft 157 kts 324°
2026-04-20 23:56 26.23377 -81.34276 4530 ft 157 kts 324°
2026-04-20 23:57 26.24183 -81.35100 4529 ft 157 kts 324°
2026-04-20 23:57 26.24986 -81.35928 4530 ft 157 kts 324°
2026-04-20 23:57 26.25785 -81.36764 4529 ft 158 kts 323°
2026-04-20 23:57 26.26591 -81.37609 4530 ft 159 kts 323°
2026-04-20 23:58 26.27397 -81.38454 4527 ft 159 kts 323°
2026-04-20 23:58 26.28200 -81.39302 4527 ft 159 kts 324°
2026-04-20 23:58 26.29012 -81.40137 4527 ft 158 kts 324°
2026-04-20 23:58 26.29831 -81.40955 4527 ft 158 kts 324°
2026-04-20 23:59 26.30641 -81.41782 4529 ft 158 kts 323°
2026-04-20 23:59 26.31439 -81.42612 4529 ft 155 kts 324°
2026-04-20 23:59 26.32224 -81.43434 4530 ft 154 kts 324°
2026-04-20 23:59 26.33012 -81.44249 4530 ft 154 kts 324°
2026-04-21 00:00 26.33797 -81.45062 4530 ft 155 kts 324°
2026-04-21 00:00 26.34584 -81.45858 4532 ft 154 kts 325°
2026-04-21 00:00 26.35387 -81.46654 4530 ft 155 kts 326°
2026-04-21 00:00 26.36202 -81.47443 4534 ft 156 kts 325°
2026-04-21 00:01 26.36993 -81.48270 4533 ft 156 kts 322°
2026-04-21 00:01 26.37766 -81.49120 4529 ft 156 kts 322°
2026-04-21 00:01 26.38525 -81.49982 4530 ft 156 kts 322°
2026-04-21 00:01 26.39302 -81.50825 4527 ft 156 kts 324°
2026-04-21 00:02 26.40103 -81.51636 4527 ft 155 kts 326°
2026-04-21 00:02 26.40903 -81.52439 4526 ft 155 kts 326°
2026-04-21 00:02 26.41705 -81.53246 4527 ft 156 kts 325°
2026-04-21 00:02 26.42505 -81.54045 4528 ft 156 kts 326°
2026-04-21 00:03 26.43316 -81.54854 4530 ft 156 kts 326°
2026-04-21 00:03 26.44130 -81.55656 4530 ft 155 kts 326°
2026-04-21 00:03 26.44936 -81.56457 4541 ft 155 kts 326°
2026-04-21 00:03 26.45743 -81.57258 4542 ft 155 kts 325°
2026-04-21 00:04 26.46536 -81.58079 4543 ft 155 kts 324°
2026-04-21 00:04 26.47323 -81.58910 4543 ft 155 kts 323°
2026-04-21 00:04 26.48095 -81.59754 4544 ft 155 kts 322°
2026-04-21 00:04 26.48868 -81.60600 4545 ft 156 kts 323°
2026-04-21 00:05 26.49650 -81.61450 4546 ft 157 kts 324°
2026-04-21 00:05 26.50438 -81.62297 4547 ft 157 kts 324°
2026-04-21 00:05 26.51232 -81.63131 4547 ft 156 kts 324°
2026-04-21 00:05 26.52002 -81.63961 4548 ft 155 kts 323°
2026-04-21 00:06 26.52803 -81.64773 4549 ft 155 kts 325°
2026-04-21 00:06 26.53620 -81.65565 4549 ft 155 kts 326°
2026-04-21 00:06 26.54432 -81.66343 4549 ft 154 kts 327°
2026-04-21 00:06 26.55249 -81.67115 4546 ft 154 kts 327°
2026-04-21 00:07 26.56064 -81.67907 4551 ft 156 kts 326°
2026-04-21 00:07 26.56865 -81.68729 4547 ft 156 kts 324°
2026-04-21 00:07 26.57648 -81.69573 4551 ft 157 kts 323°
2026-04-21 00:07 26.58429 -81.70427 4550 ft 157 kts 323°
2026-04-21 00:08 26.59213 -81.71289 4547 ft 157 kts 323°
2026-04-21 00:08 26.59986 -81.72132 4544 ft 156 kts 323°
2026-04-21 00:08 26.60773 -81.72965 4549 ft 155 kts 323°
2026-04-21 00:08 26.61585 -81.73757 4553 ft 154 kts 329°
2026-04-21 00:09 26.62486 -81.74395 4549 ft 153 kts 339°
2026-04-21 00:09 26.63465 -81.74826 4549 ft 151 kts 349°
2026-04-21 00:09 26.64480 -81.75068 4550 ft 147 kts 355°
2026-04-21 00:09 26.65491 -81.75239 4537 ft 147 kts 357°
2026-04-21 00:10 26.66503 -81.75392 4538 ft 147 kts 357°
2026-04-21 00:10 26.67502 -81.75560 4540 ft 144 kts 356°
2026-04-21 00:10 26.68499 -81.75781 4539 ft 147 kts 349°
2026-04-21 00:10 26.69465 -81.76164 4541 ft 149 kts 340°
2026-04-21 00:11 26.70374 -81.76710 4540 ft 148 kts 337°
2026-04-21 00:11 26.71276 -81.77293 4539 ft 151 kts 336°
2026-04-21 00:11 26.72177 -81.77868 4544 ft 152 kts 336°
2026-04-21 00:11 26.73099 -81.78430 4548 ft 150 kts 339°
2026-04-21 00:12 26.74035 -81.78939 4547 ft 149 kts 340°
2026-04-21 00:12 26.74977 -81.79445 4546 ft 150 kts 343°
2026-04-21 00:12 26.75954 -81.79836 4556 ft 149 kts 349°
2026-04-21 00:12 26.76946 -81.80146 4556 ft 147 kts 349°
2026-04-21 00:13 26.77940 -81.80459 4558 ft 149 kts 350°
2026-04-21 00:13 26.78937 -81.80766 4556 ft 149 kts 349°
2026-04-21 00:13 26.79921 -81.81110 4561 ft 148 kts 347°
2026-04-21 00:13 26.80903 -81.81493 4558 ft 150 kts 345°
2026-04-21 00:14 26.81860 -81.81912 4557 ft 150 kts 343°
2026-04-21 00:14 26.82824 -81.82359 4562 ft 150 kts 340°
2026-04-21 00:14 26.83761 -81.82892 4562 ft 152 kts 338°
2026-04-21 00:14 26.84687 -81.83440 4560 ft 150 kts 339°
2026-04-21 00:15 26.85629 -81.83936 4562 ft 150 kts 342°
2026-04-21 00:15 26.86589 -81.84377 4562 ft 149 kts 344°
2026-04-21 00:15 26.87570 -81.84779 4564 ft 149 kts 346°
2026-04-21 00:15 26.88544 -81.85175 4568 ft 149 kts 345°
2026-04-21 00:16 26.89494 -81.85635 4568 ft 148 kts 344°
2026-04-21 00:16 26.90463 -81.86047 4566 ft 149 kts 346°
2026-04-21 00:16 26.91447 -81.86427 4568 ft 150 kts 346°
2026-04-21 00:16 26.92427 -81.86816 4569 ft 149 kts 345°
2026-04-21 00:17 26.93385 -81.87224 4564 ft 149 kts 346°
2026-04-21 00:17 26.94353 -81.87622 4561 ft 146 kts 346°
2026-04-21 00:17 26.95313 -81.88021 4569 ft 147 kts 345°
2026-04-21 00:17 26.96275 -81.88425 4568 ft 149 kts 344°
2026-04-21 00:18 26.97237 -81.88843 4568 ft 147 kts 343°
2026-04-21 00:18 26.98175 -81.89313 4568 ft 147 kts 340°
2026-04-21 00:18 26.99101 -81.89792 4568 ft 146 kts 341°
2026-04-21 00:18 27.00051 -81.90226 4569 ft 147 kts 344°
2026-04-21 00:19 27.01010 -81.90644 4561 ft 149 kts 344°
2026-04-21 00:19 27.01974 -81.91063 4569 ft 148 kts 343°
2026-04-21 00:19 27.02930 -81.91480 4568 ft 146 kts 344°
2026-04-21 00:19 27.03857 -81.91912 4563 ft 147 kts 343°
2026-04-21 00:20 27.04813 -81.92354 4564 ft 149 kts 343°
2026-04-21 00:20 27.05787 -81.92769 4563 ft 149 kts 344°
2026-04-21 00:20 27.06750 -81.93186 4561 ft 148 kts 343°
2026-04-21 00:20 27.07702 -81.93629 4567 ft 148 kts 342°
2026-04-21 00:21 27.08645 -81.94063 4566 ft 147 kts 344°
2026-04-21 00:21 27.09602 -81.94462 4561 ft 147 kts 345°
2026-04-21 00:21 27.10570 -81.94871 4566 ft 149 kts 344°
2026-04-21 00:21 27.11518 -81.95289 4566 ft 147 kts 343°
2026-04-21 00:22 27.12457 -81.95733 4567 ft 146 kts 342°
2026-04-21 00:22 27.13396 -81.96173 4564 ft 147 kts 343°
2026-04-21 00:22 27.14350 -81.96601 4564 ft 148 kts 344°
2026-04-21 00:22 27.15323 -81.96991 4563 ft 149 kts 346°
2026-04-21 00:23 27.16282 -81.97402 4566 ft 147 kts 343°
2026-04-21 00:23 27.17219 -81.97855 4566 ft 146 kts 343°
2026-04-21 00:23 27.18162 -81.98290 4566 ft 148 kts 343°
2026-04-21 00:23 27.19126 -81.98699 4563 ft 149 kts 346°
2026-04-21 00:24 27.19789 -81.98955 4566 ft 148 kts 346°
2026-04-21 00:24 27.20735 -81.99352 4561 ft 147 kts 344°
2026-04-21 00:24 27.21682 -81.99787 4566 ft 148 kts 342°
2026-04-21 00:24 27.22621 -82.00257 4560 ft 148 kts 343°
2026-04-21 00:25 27.23568 -82.00697 4558 ft 147 kts 344°
2026-04-21 00:25 27.24538 -82.01107 4565 ft 149 kts 344°
2026-04-21 00:25 27.25499 -82.01536 4565 ft 148 kts 343°
2026-04-21 00:25 27.26422 -82.01984 4341 ft 145 kts 342°
2026-04-21 00:26 27.27371 -82.02430 3944 ft 151 kts 344°
2026-04-21 00:26 27.28370 -82.02881 3550 ft 156 kts 343°
2026-04-21 00:26 27.29350 -82.03455 3181 ft 160 kts 338°
2026-04-21 00:26 27.30332 -82.03974 2862 ft 153 kts 343°
2026-04-21 00:27 27.31332 -82.04371 2522 ft 151 kts 354°
2026-04-21 00:27 27.32352 -82.04590 2199 ft 149 kts 358°
2026-04-21 00:27 27.33375 -82.04810 1859 ft 149 kts 353°
2026-04-21 00:27 27.34357 -82.05177 1492 ft 153 kts 345°
2026-04-21 00:28 27.35311 -82.05692 1181 ft 150 kts 341°
2026-04-21 00:28 27.36181 -82.06223 1126 ft 141 kts 340°
2026-04-21 00:28 27.37082 -82.06731 1165 ft 145 kts 342°
2026-04-21 00:28 27.38008 -82.07199 1175 ft 147 kts 347°
2026-04-21 00:29 27.38986 -82.07576 1177 ft 149 kts 348°
2026-04-21 00:29 27.39946 -82.07996 1170 ft 147 kts 346°
2026-04-21 00:29 27.40735 -82.08628 1061 ft 122 kts 319°
2026-04-21 00:29 27.41120 -82.09412 928 ft 115 kts 302°
2026-04-21 00:30 27.41424 -82.10232 868 ft 111 kts 301°
2026-04-21 00:30 27.41885 -82.10722 912 ft 82 kts 13°
2026-04-21 00:30 27.42432 -82.10614 919 ft 83 kts 15°
2026-04-21 00:30 27.43033 -82.10529 779 ft 86 kts
2026-04-21 00:31 27.43608 -82.10537 618 ft 81 kts
2026-04-21 00:31 27.44150 -82.10519 427 ft 70 kts 12°
2026-04-21 00:31 27.44606 -82.10493 269 ft 65 kts 12°
2026-04-21 00:31 27.45050 -82.10481 147 ft 62 kts
2026-04-21 00:32 27.45409 -82.10479 88 ft 36 kts
2026-04-21 00:32 27.45774 -82.10471 126 ft 73 kts
2026-04-21 00:32 27.46281 -82.10516 421 ft 73 kts
2026-04-21 00:32 27.46725 -82.10710 664 ft 78 kts 312°
2026-04-21 00:33 27.46704 -82.11399 909 ft 104 kts 240°
2026-04-21 00:33 27.46180 -82.12047 1254 ft 114 kts 227°
2026-04-21 00:33 27.45644 -82.12780 1379 ft 125 kts 229°
2026-04-21 00:33 27.45309 -82.13706 1311 ft 129 kts 264°
2026-04-21 00:34 27.45219 -82.14717 1171 ft 131 kts 268°
2026-04-21 00:34 27.45215 -82.15792 1188 ft 148 kts 275°
2026-04-21 00:34 27.45254 -82.17036 1165 ft 165 kts 278°
2026-04-21 00:34 27.45296 -82.18350 1195 ft 171 kts 274°
2026-04-21 00:35 27.45255 -82.19713 1203 ft 176 kts 267°
2026-04-21 00:35 27.45007 -82.21053 1197 ft 181 kts 255°
2026-04-21 00:35 27.44602 -82.22420 1190 ft 183 kts 253°
2026-04-21 00:35 27.44260 -82.23807 1189 ft 185 kts 259°
2026-04-21 00:36 27.43965 -82.25197 1188 ft 182 kts 257°
2026-04-21 00:36 27.43706 -82.26597 1188 ft 181 kts 262°
2026-04-21 00:36 27.43562 -82.28017 1187 ft 184 kts 267°
2026-04-21 00:36 27.43417 -82.29448 1187 ft 185 kts 268°
2026-04-21 00:37 27.43304 -82.30889 1186 ft 184 kts 262°
2026-04-21 00:37 27.42696 -82.32092 1186 ft 180 kts 223°
2026-04-21 00:37 27.41782 -82.33052 1187 ft 181 kts 224°
2026-04-21 00:37 27.40892 -82.34081 1187 ft 183 kts 220°
2026-04-21 00:38 27.39956 -82.35066 1187 ft 184 kts 224°
2026-04-21 00:38 27.39034 -82.36071 1185 ft 185 kts 220°
2026-04-21 00:38 27.38104 -82.37080 1180 ft 186 kts 225°
2026-04-21 00:38 27.37282 -82.38195 1180 ft 186 kts 233°
2026-04-21 00:39 27.36496 -82.39342 1182 ft 186 kts 231°
2026-04-21 00:39 27.35705 -82.40484 1171 ft 181 kts 229°
2026-04-21 00:39 27.34946 -82.41551 1145 ft 169 kts 230°
2026-04-21 00:39 27.34242 -82.42537 1145 ft 145 kts 233°
2026-04-21 00:40 27.33816 -82.43386 1116 ft 111 kts 244°
2026-04-21 00:40 27.33436 -82.44184 1050 ft 118 kts 243°
2026-04-21 00:40 27.33020 -82.44974 1038 ft 118 kts 242°
2026-04-21 00:40 27.32617 -82.45778 1066 ft 119 kts 253°
2026-04-21 00:41 27.32546 -82.46690 1053 ft 116 kts 280°
2026-04-21 00:41 27.32700 -82.47538 1066 ft 107 kts 294°
2026-04-21 00:41 27.33042 -82.48253 1088 ft 103 kts 322°
2026-04-21 00:41 27.33540 -82.48777 1059 ft 97 kts 326°
2026-04-21 00:42 27.34031 -82.49304 1000 ft 99 kts 326°
2026-04-21 00:42 27.34530 -82.49842 957 ft 99 kts 327°
2026-04-21 00:42 27.35006 -82.50377 973 ft 95 kts 326°
2026-04-21 00:42 27.35464 -82.50918 952 ft 93 kts 328°
2026-04-21 00:43 27.35916 -82.51424 914 ft 89 kts 326°
2026-04-21 00:43 27.36372 -82.51920 787 ft 94 kts 327°
2026-04-21 00:43 27.36835 -82.52418 654 ft 92 kts 322°
2026-04-21 00:43 27.37282 -82.52941 492 ft 92 kts 320°
2026-04-21 00:44 27.37728 -82.53480 396 ft 98 kts 324°
2026-04-21 00:44 27.38210 -82.54011 277 ft 89 kts 325°
2026-04-21 00:44 27.38622 -82.54464 125 ft 80 kts 324°
2026-04-21 00:45 27.39278 -82.55223 23 ft 44 kts 321°
2026-04-21 00:45 27.39420 -82.55369 23 ft 19 kts 315°
2026-04-21 00:45 27.39475 -82.55456 24 ft 10 kts 254°
2026-04-21 00:45 27.39422 -82.55513 25 ft 10 kts 234°
2026-04-21 00:46 27.39460 -82.55592 26 ft 15 kts 314°
2026-04-21 00:46 27.39524 -82.55669 26 ft 7 kts 290°
2026-04-21 00:46 27.39517 -82.55707 25 ft 7 kts 225°
2026-04-21 00:46 27.39492 -82.55749 25 ft 4 kts 271°
2026-04-21 00:47 27.39492 -82.55783 25 ft 5 kts 265°
2026-04-21 00:47 27.39484 -82.55795 25 ft 1 kts 171°
2026-04-21 00:47 27.39480 -82.55795 25 ft 0 kts 178°